Location: Berbisdorf
(50.7638°N, 12.9442°E)
Time: 02:41:56
(UTC+00:00)

BREEZE-M DEB (TANK) - Pass Details

Date: 01 October 2020
Orbit: 333 x 12040 km, 49.7° (Epoch: 19 October)

Event Time Altitude Azimuth Distance (km) Brightness Sun altitude
Rises 03:10:33 0° 191° (S) 15,040 9.1 -19.3°
Reaches altitude 10° 03:24:29 10° 188° (S) 15,137 9.1 -17.2°
Maximum altitude 04:53:43 59° 131° (SE) 9,243 8.6 -3.3°
Drops below altitude 10° 05:25:34 10° 64° (ENE) 6,994 8.8 1.8°
Sets 05:28:58 0° 61° (ENE) 7,243 8.8 2.3°
